Tracking 28799 objects as of 18-Apr-2024
HD Live streaming from Space Station
objects crossing your sky now

COSMOS 2394 (GLONASS)

Track COSMOS 2394 (GLONASS) now!
COSMOS 2394 (GLONASS) is classified as:


NORAD ID: 27617
Int'l Code: 2002-060A
Perigee: 19,128.7 km
Apogee: 19,145.4 km
Inclination: 65.8 °
Period: 675.7 minutes
Semi major axis: 25508 km
RCS: 3.9905 m2 (large)
Launch date: December 25, 2002
Source: Commonwealth of Independent States (former USSR) (CIS)
Launch site: TYURATAM MISSILE AND SPACE COMPLEX (TTMTR)

Russia's version of the GPS system, functions the same; there has been cooperation between the two; much scaled-back constellation
Your satellite tracking list
Your tracking list is empty




NASA's NSSDC Master Catalog

Two Line Element Set (TLE):
1 27617U 02060A   24105.13360900 -.00000079  00000-0  00000-0 0  9992
2 27617  65.8096 342.3877 0003291 351.0245   9.0178  2.13101841165804
Source of the keplerian elements: AFSPC